SCP
0 0 0 0 0 0 0 0 0 0 0 0 -0 -0 -0 -0 -0 0 0 0 0 0 0 0 0 0 0 0 -0 -0 -0 -0 -0 -0 -0 0 0 0 0 0 0 0 0
0 0 0 0 0 0 0 0 0 0 0 -0 0 0 0 0 0 0 0 0 0 0 0 0 0 0 0 0 0 0 0 0 0 0 0 0 -0 0 -0 0 0 0 0
0 0 0 0 0 0 -0 -0 -0 -0 -0 -0 0 0 0 0 0 0 0 0 0 0 0 0 0 0 0 0 0 0 0 0 0 0 0 0 0 0 0 0 0 0 0
0 0 0 0 0 0 -0 -0 0 0 0 0 0 0 0 0 0 0 0 0 0 0 0 0 0 0 0 0 0 0 0 0 0 0 0 0 0 0 0 0 0 0 0
0 0 0 0 0 0 0 0 0 0 0 0 0 0 0 0 0 0 0 0 0 0 0 0 0 0 0 0 0 0 0 0 0 0 0 0 0 0 0 0 0 0 0
0 0 0 0 0 0 0 0 0 0 0 0 0 0 0 0 0 0 0 0 0 0 0 0 0 0 0 0 0 0 0 0 0 0 0 0 0 0 0 0 0 0 0
0 0 0 0 0 0 0 0 0 0 0 0 0 0 0 0 0 0 0 0 0 0 0 0 0 0 0 0 0 0 0 0 0 0 0 0 0 0 0 0 0 0 0
0 0 0 0 0 0 0 0 0 0 0 0 0 0 0 0 0 0 0 0 0 0 0 0 0 0 0 0 0 0 0 0 0 0 0 0 0 0 0 0 0 0 0
0 0 0 0 0 0 0 0 0 0 0 0 0 0 0 0 0 0 0 0 0 0 0 0 0 0 0 0 0 0 0 0 0 0 0 0 0 0 0 0 0 0 0
0 0 0 0 0 0 0 0 0 0 0 0 0 0 0 0 0 0 0 0 0 0 0 0 0 0 0 0 0 0 0 0 0 0 0 0 0 0 0 0 0 0 0
0 0 0 0 0 0 0 0 0 0 0 0 0 0 0 0 0 0 0 0 0 0 0 0 0 0 0 0 0 0 0 0 0 0 0 0 0 0 0 0 0 0 0
0 0 0 0 0 0 0 0 0 0 0 0 0 0 0 0 0 0 0 0 0 0 0 0 0 0 0 0 0 0 0 0 0 0 0 0 0 0 0 0 0 0 0
0 0 0 0 0 0 0 0 0 0 0 0 0 0 0 0 0 0 0 0 0 0 0 0 0 0 0 0 0 0 0 0 0 0 0 0 0 0 0 0 0 0 0
0 0 0 0 0 0 0 0 0 0 0 0 0 0 0 0 0 0 0 0 0 0 0 0 0 0 0 0 0 0 0 0 0 0 0 0 0 0 0 0 0 0 0
0 0 0 0 0 0 0 0 0 0 0 0 0 0 0 0 0 0 0 0 0 0 0 0 0 0 0 0 0 0 0 0 0 0 0 0 0 0 0 0 0 0 0
0 0 0 0 0 0 0 0 0 0 0 0 0 0 0 0 0 0 0 0 0 0 0 0 0 0 0 0 0 0 0 0 0 0 0 0 0 0 0 0 0 0 0
0 0 0 0 0 0 0 0 0 0 0 0 0 0 0 0 0 0 0 0 0 0 0 0 0 0 0 0 0 0 0 0 0 0 0 0 0 0 0 0 0 0 0
0 0 0 0 0 0 0 0 0 0 0 0 0 0 0 0 0 0 0 0 0 0 0 0 0 0 0 0 0 0 0 0 0 0 0 0 0 0 0 0 0 0 0
0 0 0 0 0 0 0 0 0 0 0 0 0 0 0 0 0 0 0 0 0 0 0 0 0 0 0 0 0 0 0 0 0 0 0 0 0 0 0 0 0 0 0
0 0 0 0 0 0 0 0 0 0 0 0 0 0 0 0 0 0 0 0 0 0 0 0 0 0 0 0 0 0 0 0 0 0 0 0 0 0 0 0 0 0 0
0 0 0 0 0 0 0 0 0 0 0 0 0 0 0 0 0 0 0 0 0 0 0 0 0 0 0 0 0 0 0 0 0 0 0 0 0 0 0 0 -0 -0 -0
0 0 0 0 0 0 0 0 0 0 0 0 0 0 0 0 0 0 0 0 0 0 0 0 0 0 0 0 0 0 0 0 0 0 0 0 0 0 0 0 0 0 -0
0 0 0 0 0 0 0 0 0 0 0 0 0 0 0 0 0 0 0 0 0 0 0 0 0 0 0 0 0 0 0 0 0 0 0 0 0 0 0 0 0 0 0
0 0 0 0 0 0 0 0 0 0 0 0 0 0 0 0 0 0 0 0 0 0 0 0 0 0 0 0 0 0 0 0 0 0 0 0 0 0 0 0 0 0 0
0 0 0 0 0 0 0 0 0 0 0 0 0 0 0 0 0 0 0 0 0 0 0 0 0 0 0 0 0 0 0 0 0 0 0 0 0 0 0 0 0 0 0
0 0 0 0 0 0 0 0 0 0 0 0 0 0 0 0 0 0 0 0 0 0 0 0 0 0 0 0 0 0 0 0 0 0 0 0 0 0 0 0 0 0 0
Wind_Speed_500mb
14 18 18 18 20 21 19 20 19 18 20 20 19 18 11 8 7 6 1 5 9 12 14 14 13 13 14 13 12 11 10 10 11 13 19 20 17 10 5 6 7 5 5
21 18 17 17 20 20 19 19 21 26 26 25 20 16 12 8 5 2 5 9 13 16 18 18 17 16 14 14 12 10 9 8 5 6 12 15 15 10 7 3 5 3 4
19 16 16 16 19 21 23 25 20 14 7 2 10 11 10 4 2 2 5 8 11 13 15 16 17 16 15 12 10 9 8 7 7 4 1 2 6 4 5 7 6 3 7
20 17 15 17 24 26 27 20 10 4 9 11 10 9 5 2 2 4 5 8 11 13 14 14 15 15 15 13 11 7 6 7 8 9 10 10 11 17 18 16 13 10 8
19 18 16 18 26 26 22 17 8 4 9 17 10 6 8 7 7 7 7 8 10 13 14 14 14 15 15 15 13 11 10 9 9 11 13 13 10 23 22 20 20 18 16
22 20 18 22 24 21 16 12 10 8 5 9 15 11 11 11 8 7 8 10 12 14 15 16 16 15 15 14 13 12 11 11 11 12 14 15 18 24 24 23 22 21 22
25 25 27 27 21 17 14 11 9 6 3 2 9 11 13 12 10 10 10 12 14 14 16 16 17 17 17 16 15 13 11 11 12 13 14 15 20 21 23 21 19 19 21
29 25 25 23 19 17 15 16 13 9 6 7 7 9 8 9 9 11 12 13 15 16 17 19 18 18 18 18 18 17 16 15 15 15 15 16 18 19 21 21 20 18 18
20 22 23 18 15 11 15 16 15 14 10 8 5 6 5 7 8 12 13 15 16 17 17 18 19 20 20 20 20 19 18 18 17 17 15 16 16 20 22 21 21 21 21
21 20 25 19 19 14 13 13 13 14 7 6 3 5 3 9 8 10 12 13 15 17 19 20 20 21 21 20 20 19 18 17 16 15 15 16 14 17 19 20 19 18 20
17 17 14 13 11 6 8 9 9 11 10 6 8 9 6 9 10 11 13 14 17 19 21 22 23 23 23 22 22 20 19 18 17 16 15 14 14 15 17 18 18 18 20
20 19 17 15 17 15 12 10 8 8 8 12 12 11 9 11 11 14 15 17 21 22 24 24 25 25 23 23 22 19 17 16 15 15 16 14 14 15 15 16 17 17 20
27 24 24 23 23 20 20 16 15 14 15 14 13 13 13 12 13 17 18 22 23 23 24 24 24 23 22 21 19 19 18 16 15 15 16 14 15 14 13 8 5 17 23
24 25 24 24 21 20 20 18 19 19 16 18 16 16 14 15 16 16 19 21 22 23 24 24 24 23 22 20 19 19 17 17 16 15 16 15 12 11 5 14 17 17 17
21 21 21 20 21 22 21 23 23 21 20 19 18 16 15 15 17 18 20 22 23 23 23 24 24 23 21 20 19 18 17 17 17 15 14 13 9 7 10 13 18 22 23
24 23 22 22 22 23 26 26 25 24 22 22 20 18 17 16 18 19 20 22 23 25 24 24 23 21 21 20 19 18 18 16 14 11 8 8 7 8 13 15 17 21 26
28 28 27 27 25 26 27 26 26 26 25 24 23 21 19 18 18 20 21 22 24 25 26 24 23 22 20 20 20 18 17 13 8 4 2 4 10 8 10 14 20 24 28
29 31 32 32 31 30 28 27 28 28 27 27 25 25 22 21 20 21 21 21 23 25 26 24 22 20 19 19 19 18 17 11 6 2 5 2 2 4 10 17 24 28 31
28 31 34 36 35 34 32 30 28 28 30 29 28 27 25 23 22 22 22 23 24 26 26 24 23 21 20 18 19 18 16 11 12 7 4 1 4 9 13 24 31 34 38
27 29 31 36 43 40 38 34 31 30 31 32 32 30 28 26 25 24 24 24 24 25 25 24 22 22 21 19 18 16 16 16 17 10 7 4 8 11 23 29 38 41 42
31 34 36 38 41 48 44 39 36 33 32 34 34 33 31 30 29 27 25 24 24 24 24 24 22 21 22 20 16 17 17 17 19 25 17 9 14 14 32 32 42 45 47
32 31 30 32 39 43 46 42 37 32 32 33 35 35 34 33 31 29 27 25 25 24 24 24 24 22 22 20 16 16 7 14 20 26 25 18 22 21 39 37 47 48 49
29 27 24 23 27 35 40 40 36 33 32 31 33 33 33 32 31 29 27 26 25 24 24 24 24 23 23 24 19 12 8 7 14 26 21 29 30 31 49 46 53 53 52
28 27 24 21 22 28 35 38 35 33 31 33 33 33 32 31 30 30 30 29 29 28 28 28 28 27 25 26 27 22 22 25 11 19 25 35 35 51 51 56 57 55 55
29 27 25 23 23 28 34 36 35 36 36 36 36 37 37 36 35 33 33 32 32 32 32 32 32 32 32 31 31 33 34 34 35 31 38 33 42 51 55 60 57 57 56
32 30 27 25 25 28 33 37 38 38 37 36 36 36 36 36 35 34 33 32 31 31 30 30 30 31 31 33 35 37 39 32 26 27 37 41 51 53 51 60 58 54 55
Wind_Direction_500mb
178 167 164 161 165 171 170 156 147 143 143 132 133 139 171 194 196 172 153 353 357 357 354 1 7 8 6 12 9 13 17 32 50 76 80 58 47 43 91 109 106 129 132
167 165 169 164 168 171 169 157 152 135 131 134 147 170 197 220 217 267 339 347 349 352 349 351 353 352 356 353 357 355 353 353 20 61 97 76 76 54 51 142 199 168 211
145 161 167 161 159 169 156 143 133 124 116 330 313 297 273 284 260 301 314 339 340 343 341 344 346 351 354 356 349 341 330 320 313 307 205 264 250 268 339 347 11 257 234
158 165 172 169 157 161 153 144 144 101 16 332 314 303 297 319 285 296 321 322 332 334 333 341 345 347 352 356 349 338 307 288 282 281 273 272 302 286 294 306 312 304 295
163 169 170 172 167 165 171 170 163 98 42 6 345 321 337 326 302 296 302 317 328 331 334 339 345 345 351 349 350 343 329 310 285 275 272 269 285 292 295 300 293 290 284
169 161 164 167 169 175 188 192 192 213 94 12 317 315 328 325 317 305 316 320 325 331 336 338 340 342 345 345 343 339 331 319 306 290 278 278 274 287 294 297 293 284 281
171 174 164 174 178 198 218 215 219 235 204 229 289 294 307 308 310 313 319 325 325 329 331 333 336 336 338 339 336 333 330 320 313 306 301 292 288 293 296 299 294 286 276
181 171 179 200 220 217 218 232 241 243 243 224 267 278 283 287 289 298 312 319 324 329 329 330 331 329 331 330 329 328 326 320 316 310 305 299 301 302 303 307 306 299 292
208 188 183 197 213 217 243 239 236 230 241 261 233 253 269 287 301 304 310 315 315 318 320 324 325 325 326 325 323 322 320 317 314 311 308 298 301 300 302 304 305 305 299
196 186 203 209 230 242 225 250 258 244 238 228 235 238 243 290 292 299 302 311 315 316 321 320 320 319 322 321 319 321 317 315 313 311 307 304 301 298 299 303 305 302 296
214 200 231 223 237 247 255 279 272 242 213 238 251 266 262 277 292 301 305 315 311 316 317 319 318 318 318 319 319 319 317 317 314 312 305 307 306 303 303 305 305 301 303
230 253 267 287 287 288 279 265 249 243 232 242 255 256 271 278 292 300 309 318 313 317 318 318 317 318 319 319 318 316 315 314 314 308 305 305 304 300 304 313 316 310 304
236 255 267 275 274 271 261 260 252 243 248 250 261 269 270 279 288 300 314 312 314 317 318 319 318 317 316 316 317 318 317 316 313 310 306 308 308 307 314 8 325 315 329
232 247 255 259 254 262 256 255 256 252 250 255 254 258 267 279 292 303 309 311 316 318 319 318 316 315 316 315 316 317 315 313 311 307 302 305 306 307 290 296 319 330 331
229 240 249 255 246 250 251 248 251 252 252 252 254 260 268 280 293 305 311 314 316 316 318 317 315 312 310 310 313 312 310 308 304 297 293 293 294 278 299 319 322 323 327
241 250 257 255 252 250 248 249 250 250 253 255 257 261 268 280 296 309 311 313 317 317 319 318 314 311 310 309 312 312 309 307 300 289 281 292 308 319 319 329 338 337 332
247 251 255 256 255 254 253 254 254 254 255 256 259 264 270 281 293 301 309 314 318 320 324 323 318 316 314 316 315 314 309 303 285 263 235 270 296 323 348 355 347 344 338
258 258 257 254 252 253 257 257 255 256 257 258 259 261 267 275 287 297 303 309 314 319 322 319 315 310 310 311 311 309 305 286 215 309 269 174 305 34 3 359 350 350 349
270 267 261 256 253 251 252 255 258 260 258 258 259 260 263 270 280 289 297 303 309 315 317 315 309 303 303 303 304 300 293 258 205 29 160 6 130 17 345 348 348 346 344
280 278 271 262 250 248 249 252 258 262 261 257 255 256 259 266 272 277 281 289 298 306 309 309 302 294 295 300 301 291 281 249 229 220 328 296 255 342 345 340 341 339 338
296 292 280 267 256 247 247 248 252 261 262 257 254 254 255 258 261 265 273 284 295 303 307 307 301 292 293 299 300 295 278 250 252 228 327 286 285 296 339 331 334 332 332
304 302 293 276 256 246 241 241 245 257 258 255 253 253 254 257 261 266 273 282 292 301 309 311 307 300 291 294 301 302 266 271 257 231 298 266 300 279 326 317 324 323 323
310 310 303 285 262 246 237 236 242 251 257 257 254 253 253 254 256 261 270 279 289 297 304 311 314 308 298 293 293 284 296 279 289 277 273 275 286 277 307 306 313 313 314
313 313 309 291 267 246 235 236 241 247 254 258 256 253 251 252 256 263 270 275 280 287 294 299 302 304 303 298 297 286 271 271 291 292 287 283 270 286 291 300 306 307 309
315 315 312 299 275 254 243 242 245 251 257 260 257 254 254 256 258 261 265 270 277 283 288 292 294 294 294 294 291 290 287 284 279 271 282 282 288 294 295 302 305 307 307
313 310 305 295 278 263 253 248 249 254 260 264 262 258 255 256 258 259 263 269 275 281 286 290 292 292 292 291 289 286 283 278 275 276 279 284 291 294 297 299 304 305 303
Wind_Speed_850mb
14 18 18 18 20 21 19 20 19 18 20 20 19 18 11 8 7 6 1 5 9 12 14 14 13 13 14 13 12 11 10 10 11 13 19 20 17 10 5 6 7 5 5
21 18 17 17 20 20 19 19 21 26 26 25 20 16 12 8 5 2 5 9 13 16 18 18 17 16 14 14 12 10 9 8 5 6 12 15 15 10 7 3 5 3 4
19 16 16 16 19 21 23 25 20 14 7 2 10 11 10 4 2 2 5 8 11 13 15 16 17 16 15 12 10 9 8 7 7 4 1 2 6 4 5 7 6 3 7
20 17 15 17 24 26 27 20 10 4 9 11 10 9 5 2 2 4 5 8 11 13 14 14 15 15 15 13 11 7 6 7 8 9 10 10 11 17 18 16 13 10 8
19 18 16 18 26 26 22 17 8 4 9 17 10 6 8 7 7 7 7 8 10 13 14 14 14 15 15 15 13 11 10 9 9 11 13 13 10 23 22 20 20 18 16
22 20 18 22 24 21 16 12 10 8 5 9 15 11 11 11 8 7 8 10 12 14 15 16 16 15 15 14 13 12 11 11 11 12 14 15 18 24 24 23 22 21 22
25 25 27 27 21 17 14 11 9 6 3 2 9 11 13 12 10 10 10 12 14 14 16 16 17 17 17 16 15 13 11 11 12 13 14 15 20 21 23 21 19 19 21
29 25 25 23 19 17 15 16 13 9 6 7 7 9 8 9 9 11 12 13 15 16 17 19 18 18 18 18 18 17 16 15 15 15 15 16 18 19 21 21 20 18 18
20 22 23 18 15 11 15 16 15 14 10 8 5 6 5 7 8 12 13 15 16 17 17 18 19 20 20 20 20 19 18 18 17 17 15 16 16 20 22 21 21 21 21
21 20 25 19 19 14 13 13 13 14 7 6 3 5 3 9 8 10 12 13 15 17 19 20 20 21 21 20 20 19 18 17 16 15 15 16 14 17 19 20 19 18 20
17 17 14 13 11 6 8 9 9 11 10 6 8 9 6 9 10 11 13 14 17 19 21 22 23 23 23 22 22 20 19 18 17 16 15 14 14 15 17 18 18 18 20
20 19 17 15 17 15 12 10 8 8 8 12 12 11 9 11 11 14 15 17 21 22 24 24 25 25 23 23 22 19 17 16 15 15 16 14 14 15 15 16 17 17 20
27 24 24 23 23 20 20 16 15 14 15 14 13 13 13 12 13 17 18 22 23 23 24 24 24 23 22 21 19 19 18 16 15 15 16 14 15 14 13 8 5 17 23
24 25 24 24 21 20 20 18 19 19 16 18 16 16 14 15 16 16 19 21 22 23 24 24 24 23 22 20 19 19 17 17 16 15 16 15 12 11 5 14 17 17 17
21 21 21 20 21 22 21 23 23 21 20 19 18 16 15 15 17 18 20 22 23 23 23 24 24 23 21 20 19 18 17 17 17 15 14 13 9 7 10 13 18 22 23
24 23 22 22 22 23 26 26 25 24 22 22 20 18 17 16 18 19 20 22 23 25 24 24 23 21 21 20 19 18 18 16 14 11 8 8 7 8 13 15 17 21 26
28 28 27 27 25 26 27 26 26 26 25 24 23 21 19 18 18 20 21 22 24 25 26 24 23 22 20 20 20 18 17 13 8 4 2 4 10 8 10 14 20 24 28
29 31 32 32 31 30 28 27 28 28 27 27 25 25 22 21 20 21 21 21 23 25 26 24 22 20 19 19 19 18 17 11 6 2 5 2 2 4 10 17 24 28 31
28 31 34 36 35 34 32 30 28 28 30 29 28 27 25 23 22 22 22 23 24 26 26 24 23 21 20 18 19 18 16 11 12 7 4 1 4 9 13 24 31 34 38
27 29 31 36 43 40 38 34 31 30 31 32 32 30 28 26 25 24 24 24 24 25 25 24 22 22 21 19 18 16 16 16 17 10 7 4 8 11 23 29 38 41 42
31 34 36 38 41 48 44 39 36 33 32 34 34 33 31 30 29 27 25 24 24 24 24 24 22 21 22 20 16 17 17 17 19 25 17 9 14 14 32 32 42 45 47
32 31 30 32 39 43 46 42 37 32 32 33 35 35 34 33 31 29 27 25 25 24 24 24 24 22 22 20 16 16 7 14 20 26 25 18 22 21 39 37 47 48 49
29 27 24 23 27 35 40 40 36 33 32 31 33 33 33 32 31 29 27 26 25 24 24 24 24 23 23 24 19 12 8 7 14 26 21 29 30 31 49 46 53 53 52
28 27 24 21 22 28 35 38 35 33 31 33 33 33 32 31 30 30 30 29 29 28 28 28 28 27 25 26 27 22 22 25 11 19 25 35 35 51 51 56 57 55 55
29 27 25 23 23 28 34 36 35 36 36 36 36 37 37 36 35 33 33 32 32 32 32 32 32 32 32 31 31 33 34 34 35 31 38 33 42 51 55 60 57 57 56
32 30 27 25 25 28 33 37 38 38 37 36 36 36 36 36 35 34 33 32 31 31 30 30 30 31 31 33 35 37 39 32 26 27 37 41 51 53 51 60 58 54 55
Wind_Direction_850mb
178 167 164 161 165 171 170 156 147 143 143 132 133 139 171 194 196 172 153 353 357 357 354 1 7 8 6 12 9 13 17 32 50 76 80 58 47 43 91 109 106 129 132
167 165 169 164 168 171 169 157 152 135 131 134 147 170 197 220 217 267 339 347 349 352 349 351 353 352 356 353 357 355 353 353 20 61 97 76 76 54 51 142 199 168 211
145 161 167 161 159 169 156 143 133 124 116 330 313 297 273 284 260 301 314 339 340 343 341 344 346 351 354 356 349 341 330 320 313 307 205 264 250 268 339 347 11 257 234
158 165 172 169 157 161 153 144 144 101 16 332 314 303 297 319 285 296 321 322 332 334 333 341 345 347 352 356 349 338 307 288 282 281 273 272 302 286 294 306 312 304 295
163 169 170 172 167 165 171 170 163 98 42 6 345 321 337 326 302 296 302 317 328 331 334 339 345 345 351 349 350 343 329 310 285 275 272 269 285 292 295 300 293 290 284
169 161 164 167 169 175 188 192 192 213 94 12 317 315 328 325 317 305 316 320 325 331 336 338 340 342 345 345 343 339 331 319 306 290 278 278 274 287 294 297 293 284 281
171 174 164 174 178 198 218 215 219 235 204 229 289 294 307 308 310 313 319 325 325 329 331 333 336 336 338 339 336 333 330 320 313 306 301 292 288 293 296 299 294 286 276
181 171 179 200 220 217 218 232 241 243 243 224 267 278 283 287 289 298 312 319 324 329 329 330 331 329 331 330 329 328 326 320 316 310 305 299 301 302 303 307 306 299 292
208 188 183 197 213 217 243 239 236 230 241 261 233 253 269 287 301 304 310 315 315 318 320 324 325 325 326 325 323 322 320 317 314 311 308 298 301 300 302 304 305 305 299
196 186 203 209 230 242 225 250 258 244 238 228 235 238 243 290 292 299 302 311 315 316 321 320 320 319 322 321 319 321 317 315 313 311 307 304 301 298 299 303 305 302 296
214 200 231 223 237 247 255 279 272 242 213 238 251 266 262 277 292 301 305 315 311 316 317 319 318 318 318 319 319 319 317 317 314 312 305 307 306 303 303 305 305 301 303
230 253 267 287 287 288 279 265 249 243 232 242 255 256 271 278 292 300 309 318 313 317 318 318 317 318 319 319 318 316 315 314 314 308 305 305 304 300 304 313 316 310 304
236 255 267 275 274 271 261 260 252 243 248 250 261 269 270 279 288 300 314 312 314 317 318 319 318 317 316 316 317 318 317 316 313 310 306 308 308 307 314 8 325 315 329
232 247 255 259 254 262 256 255 256 252 250 255 254 258 267 279 292 303 309 311 316 318 319 318 316 315 316 315 316 317 315 313 311 307 302 305 306 307 290 296 319 330 331
229 240 249 255 246 250 251 248 251 252 252 252 254 260 268 280 293 305 311 314 316 316 318 317 315 312 310 310 313 312 310 308 304 297 293 293 294 278 299 319 322 323 327
241 250 257 255 252 250 248 249 250 250 253 255 257 261 268 280 296 309 311 313 317 317 319 318 314 311 310 309 312 312 309 307 300 289 281 292 308 319 319 329 338 337 332
247 251 255 256 255 254 253 254 254 254 255 256 259 264 270 281 293 301 309 314 318 320 324 323 318 316 314 316 315 314 309 303 285 263 235 270 296 323 348 355 347 344 338
258 258 257 254 252 253 257 257 255 256 257 258 259 261 267 275 287 297 303 309 314 319 322 319 315 310 310 311 311 309 305 286 215 309 269 174 305 34 3 359 350 350 349
270 267 261 256 253 251 252 255 258 260 258 258 259 260 263 270 280 289 297 303 309 315 317 315 309 303 303 303 304 300 293 258 205 29 160 6 130 17 345 348 348 346 344
280 278 271 262 250 248 249 252 258 262 261 257 255 256 259 266 272 277 281 289 298 306 309 309 302 294 295 300 301 291 281 249 229 220 328 296 255 342 345 340 341 339 338
296 292 280 267 256 247 247 248 252 261 262 257 254 254 255 258 261 265 273 284 295 303 307 307 301 292 293 299 300 295 278 250 252 228 327 286 285 296 339 331 334 332 332
304 302 293 276 256 246 241 241 245 257 258 255 253 253 254 257 261 266 273 282 292 301 309 311 307 300 291 294 301 302 266 271 257 231 298 266 300 279 326 317 324 323 323
310 310 303 285 262 246 237 236 242 251 257 257 254 253 253 254 256 261 270 279 289 297 304 311 314 308 298 293 293 284 296 279 289 277 273 275 286 277 307 306 313 313 314
313 313 309 291 267 246 235 236 241 247 254 258 256 253 251 252 256 263 270 275 280 287 294 299 302 304 303 298 297 286 271 271 291 292 287 283 270 286 291 300 306 307 309
315 315 312 299 275 254 243 242 245 251 257 260 257 254 254 256 258 261 265 270 277 283 288 292 294 294 294 294 291 290 287 284 279 271 282 282 288 294 295 302 305 307 307
313 310 305 295 278 263 253 248 249 254 260 264 262 258 255 256 258 259 263 269 275 281 286 290 292 292 292 291 289 286 283 278 275 276 279 284 291 294 297 299 304 305 303